Temp
8 8 9 9 9 9 9 8 7 8 7 8 7 7 6 7 7 7 8 7 7 6 6 7 6 6 6 6 6 6 6 5 5 5 5 5 5 5 5 5 5 5 5 5 5 5 5 5 5
9 9 9 9 9 9 8 7 8 8 7 7 7 7 7 7 7 7 7 7 7 7 7 6 7 6 6 6 6 6 6 6 6 6 6 6 6 5 5 5 5 5 5 5 5 5 5 5 5
8 9 9 9 9 9 9 8 8 8 8 8 7 7 7 7 7 7 7 6 6 6 6 6 6 6 6 6 6 6 6 6 6 6 6 6 6 6 6 6 6 6 6 5 5 5 5 5 5
9 9 9 9 9 9 9 8 8 8 8 8 7 7 7 7 7 7 7 6 6 6 6 6 6 6 5 5 5 5 5 5 5 5 6 6 6 6 6 6 6 6 6 6 6 5 5 4 5
9 9 9 9 9 9 9 8 8 8 8 8 7 7 7 7 7 7 7 6 6 6 6 6 5 5 5 5 5 5 5 5 5 5 5 5 5 5 5 5 5 5 5 5 5 6 6 5 5
9 9 9 9 9 8 8 8 7 8 7 7 7 7 7 7 7 6 6 6 6 6 5 5 5 5 5 5 5 5 5 5 5 5 5 5 5 5 6 6 6 6 6 5 5 5 5 5 5
9 9 9 9 9 8 8 8 8 8 8 7 7 7 7 7 6 6 6 6 6 5 5 5 5 5 5 5 5 5 5 5 5 5 5 5 5 6 6 6 6 5 5 5 6 5 5 5 4
8 8 9 9 8 8 8 8 8 8 7 7 7 7 7 7 6 6 6 5 5 5 5 5 5 5 5 5 5 5 5 5 5 5 5 5 5 5 5 5 5 5 5 5 5 5 5 5 4
8 8 9 9 9 9 8 8 8 8 8 7 7 7 7 6 6 5 5 5 5 5 5 5 5 5 4 4 4 4 4 4 4 4 4 4 4 4 4 4 4 5 5 5 5 5 5 5 5
9 9 9 8 8 8 8 8 7 7 8 7 7 7 6 6 5 5 5 5 5 5 5 4 4 4 4 4 4 4 3 3 3 3 3 3 3 3 3 4 4 4 4 5 5 5 5 5 5
9 9 8 8 8 8 8 8 8 7 8 7 6 6 6 6 5 5 5 5 5 4 4 4 4 4 3 3 3 3 3 3 3 3 3 3 3 3 3 3 3 3 3 3 3 3 3 3 3
8 8 8 8 8 8 7 7 8 7 7 7 6 6 6 5 5 5 5 4 4 4 4 4 3 3 3 3 3 2 2 2 2 2 2 2 2 2 2 2 2 2 2 2 2 2 2 2 2
8 8 8 8 8 8 8 7 7 8 7 7 6 6 6 5 5 5 4 4 4 4 4 3 3 3 2 2 2 2 2 1 2 2 2 2 2 1 1 1 1 1 1 1 0 0 0 0 -0
8 8 8 8 8 7 7 7 7 7 7 7 6 6 6 5 5 5 4 4 4 4 3 3 2 2 2 1 1 1 1 1 1 1 1 1 0 0 0 0 0 -0 -0 -1 -1 -1 -1 -1 -1
8 7 8 7 7 7 7 7 9 7 7 7 6 6 6 5 5 4 4 4 4 3 3 2 2 2 1 1 1 1 1 1 0 -0 -0 -1 -0 -0 -0 -1 -1 -1 -1 -1 -2 -2 -2 -2 -3
7 7 7 7 7 7 7 9 8 8 7 7 6 6 6 5 4 4 4 4 4 3 2 2 2 1 1 0 0 0 0 -0 -1 -1 -1 -1 -1 -1 -1 -1 -1 -1 -2 -2 -2 -3 -3 -3 -4
6 7 7 7 7 7 7 8 8 8 7 7 6 6 5 5 4 4 4 4 3 3 2 2 1 1 0 0 0 -0 -0 -1 -1 -2 -2 -1 -2 -2 -1 -2 -2 -2 -3 -3 -4 -4 -5 -4 -5
7 7 7 7 7 7 7 9 8 7 7 7 6 6 6 5 5 4 4 3 3 2 2 1 1 0 -0 -0 -1 -1 -1 -2 -2 -2 -2 -2 -2 -2 -3 -3 -3 -4 -4 -5 -5 -6 -6 -7 -7
7 7 7 7 6 6 7 8 8 7 7 7 8 7 6 5 4 4 4 3 3 2 2 1 0 -0 -1 -1 -1 -1 -2 -2 -2 -2 -3 -3 -3 -3 -3 -3 -4 -5 -5 -5 -6 -6 -6 -6 -7
6 6 6 6 6 6 6 8 8 8 8 9 8 7 6 5 4 4 4 3 2 2 1 0 -0 -0 -1 -1 -1 -1 -2 -2 -2 -3 -3 -3 -4 -4 -4 -4 -5 -5 -5 -6 -6 -6 -6 -7 -8
6 6 6 5 5 5 5 7 9 10 9 9 9 8 7 6 5 4 3 2 1 1 0 -0 -1 -1 -1 -1 -1 -2 -2 -3 -3 -3 -4 -4 -4 -5 -5 -5 -6 -6 -6 -6 -7 -7 -7 -7 -8
6 5 5 5 4 4 4 4 7 9 10 9 9 9 8 7 6 5 3 2 2 0 -0 -1 -1 -1 -1 -1 -2 -2 -2 -3 -3 -4 -4 -5 -5 -5 -6 -6 -6 -6 -7 -7 -7 -7 -8 -9 -8
5 5 5 4 4 3 3 3 8 8 9 10 9 8 8 7 5 4 3 1 0 0 -0 -1 -1 -1 -2 -2 -2 -3 -3 -4 -4 -4 -5 -5 -5 -6 -6 -6 -6 -6 -7 -7 -7 -8 -8 -9 -9
4 4 3 3 2 0 3 4 8 9 9 9 9 8 7 6 5 4 2 2 1 -0 -1 -1 -1 -2 -2 -3 -3 -4 -4 -5 -5 -5 -5 -5 -5 -6 -6 -6 -6 -6 -6 -7 -7 -7 -8 -9 -10
3 3 2 -0 -2 0 1 0 7 8 8 8 8 7 7 6 5 4 3 1 0 -0 -1 -1 -2 -2 -3 -3 -4 -5 -5 -5 -5 -5 -5 -6 -6 -6 -6 -6 -6 -6 -7 -7 -7 -8 -8 -9 -10
4 3 4 0 -1 -1 0 1 8 8 8 8 7 7 6 5 4 3 2 1 0 -1 -1 -2 -2 -3 -4 -4 -5 -5 -6 -5 -6 -6 -6 -6 -6 -6 -7 -7 -7 -7 -8 -8 -9 -9 -9 -9 -10
2 2 3 2 -1 -2 3 5 7 8 7 7 7 6 5 4 4 3 2 1 -0 -1 -1 -2 -3 -3 -4 -5 -5 -6 -6 -6 -6 -7 -7 -7 -7 -7 -7 -7 -8 -9 -10 -10 -11 -11 -11 -11 -11
2 3 1 1 -1 -1 0 2 7 8 7 7 6 6 5 4 3 2 1 -0 -1 -1 -2 -2 -3 -4 -5 -5 -6 -6 -6 -6 -7 -7 -7 -7 -8 -8 -8 -9 -10 -11 -12 -12 -12 -12 -12 -12 -12
2 1 2 2 2 -2 -2 4 7 7 7 6 5 5 4 3 2 1 -0 -1 -1 -2 -2 -3 -4 -5 -6 -6 -6 -6 -6 -7 -7 -7 -8 -8 -8 -9 -10 -11 -12 -12 -13 -13 -14 -14 -14 -14 -13
2 2 3 3 -0 -0 -2 2 6 6 6 5 4 4 3 2 1 -0 -1 -1 -2 -2 -3 -4 -4 -5 -6 -6 -6 -6 -7 -7 -7 -7 -8 -9 -9 -10 -11 -12 -13 -13 -14 -14 -14 -14 -15 -15 -14
Height
3165 3164 3166 3167 3171 3167 3166 3168 3168 3169 3171 3171 3172 3172 3173 3171 3171 3175 3171 3171 3172 3171 3171 3171 3170 3169 3169 3168 3167 3166 3165 3164 3163 3163 3163 3162 3162 3161 3159 3159 3159 3158 3157 3157 3157 3156 3156 3155 3155
3164 3166 3167 3167 3169 3165 3166 3167 3167 3169 3170 3170 3170 3170 3170 3170 3170 3169 3170 3170 3170 3170 3170 3169 3169 3168 3167 3166 3165 3164 3163 3162 3161 3160 3160 3158 3158 3157 3156 3156 3155 3154 3154 3153 3153 3152 3152 3151 3151
3165 3166 3167 3166 3165 3165 3165 3167 3168 3169 3168 3169 3169 3169 3168 3169 3169 3168 3169 3169 3169 3169 3168 3167 3167 3166 3166 3164 3163 3162 3161 3160 3159 3158 3157 3156 3154 3154 3153 3152 3151 3150 3150 3148 3148 3147 3146 3146 3146
3165 3166 3166 3164 3165 3165 3166 3166 3167 3167 3167 3166 3166 3167 3167 3167 3167 3167 3167 3168 3167 3165 3165 3166 3165 3164 3163 3162 3161 3160 3159 3158 3157 3155 3154 3153 3152 3150 3150 3148 3147 3146 3145 3144 3143 3142 3141 3140 3140
3164 3164 3165 3165 3165 3165 3165 3166 3166 3165 3165 3165 3165 3166 3166 3165 3165 3165 3166 3165 3164 3164 3164 3163 3162 3161 3160 3159 3157 3156 3155 3154 3153 3151 3151 3149 3148 3146 3145 3144 3142 3141 3140 3139 3138 3137 3135 3134 3133
3163 3164 3164 3163 3163 3162 3162 3163 3162 3162 3163 3163 3163 3163 3164 3163 3164 3164 3163 3163 3162 3162 3162 3161 3160 3159 3157 3156 3155 3154 3153 3152 3150 3149 3147 3145 3144 3142 3140 3139 3137 3135 3134 3133 3131 3130 3129 3128 3127
3159 3159 3159 3159 3160 3160 3160 3160 3160 3161 3161 3161 3162 3162 3162 3162 3162 3162 3161 3161 3160 3160 3159 3157 3157 3156 3155 3153 3153 3151 3150 3148 3147 3145 3143 3141 3140 3139 3137 3134 3133 3131 3129 3127 3125 3123 3122 3120 3119
3158 3159 3159 3159 3158 3158 3157 3158 3159 3159 3159 3159 3159 3159 3160 3160 3160 3159 3159 3158 3157 3157 3156 3155 3154 3153 3153 3151 3150 3148 3146 3145 3143 3141 3139 3138 3136 3134 3132 3129 3127 3124 3123 3121 3118 3116 3115 3113 3111
3154 3155 3153 3153 3153 3154 3154 3155 3156 3156 3156 3157 3157 3158 3158 3157 3157 3156 3155 3155 3155 3154 3153 3152 3152 3151 3149 3148 3146 3145 3143 3141 3140 3138 3136 3133 3130 3127 3124 3121 3119 3117 3115 3113 3110 3107 3105 3104 3102
3151 3150 3150 3151 3151 3151 3152 3152 3153 3154 3154 3154 3154 3155 3155 3154 3154 3153 3153 3152 3152 3151 3151 3150 3149 3148 3147 3146 3144 3143 3141 3138 3136 3133 3129 3126 3123 3119 3116 3114 3111 3109 3106 3104 3101 3098 3095 3093 3091
3147 3148 3149 3149 3149 3149 3149 3150 3150 3150 3150 3151 3152 3151 3152 3151 3151 3150 3149 3149 3149 3149 3148 3148 3147 3146 3145 3144 3141 3139 3136 3133 3130 3127 3123 3120 3117 3114 3110 3107 3104 3101 3098 3095 3092 3089 3086 3084 3081
3145 3145 3146 3146 3146 3146 3147 3147 3146 3146 3148 3148 3148 3148 3148 3148 3147 3146 3146 3145 3145 3145 3145 3145 3145 3144 3143 3140 3138 3135 3132 3129 3125 3122 3118 3115 3111 3108 3104 3100 3096 3092 3089 3085 3081 3078 3075 3072 3069
3143 3143 3143 3143 3143 3143 3143 3143 3143 3143 3143 3143 3143 3144 3144 3144 3143 3142 3142 3142 3142 3143 3143 3142 3141 3140 3139 3135 3132 3129 3126 3122 3118 3114 3110 3107 3104 3101 3096 3092 3086 3081 3077 3072 3069 3065 3061 3058 3056
3140 3140 3140 3139 3140 3139 3139 3139 3138 3138 3138 3138 3139 3139 3139 3139 3139 3138 3138 3138 3139 3139 3139 3138 3137 3135 3132 3129 3127 3124 3120 3115 3111 3107 3103 3098 3093 3088 3085 3080 3075 3070 3065 3060 3054 3050 3046 3043 3040
3136 3136 3136 3135 3136 3135 3135 3133 3133 3134 3133 3134 3135 3135 3135 3135 3135 3135 3134 3135 3135 3135 3135 3133 3132 3129 3127 3124 3121 3117 3113 3109 3105 3100 3094 3088 3082 3077 3072 3068 3062 3057 3052 3047 3042 3038 3033 3029 3025
3133 3133 3131 3131 3132 3132 3132 3127 3130 3130 3130 3130 3130 3131 3131 3131 3131 3130 3130 3130 3130 3130 3129 3128 3126 3124 3122 3119 3115 3111 3107 3103 3099 3093 3087 3081 3075 3069 3063 3057 3052 3046 3041 3036 3030 3025 3020 3015 3010
3129 3128 3127 3128 3127 3127 3127 3124 3125 3125 3125 3124 3124 3125 3125 3125 3125 3125 3125 3125 3125 3124 3124 3122 3121 3119 3117 3113 3110 3105 3101 3097 3092 3086 3079 3073 3067 3060 3053 3047 3042 3036 3031 3026 3019 3014 3007 3002 2998
3124 3124 3124 3124 3125 3123 3121 3119 3122 3122 3120 3120 3119 3118 3118 3119 3120 3119 3119 3119 3119 3118 3117 3116 3115 3113 3111 3108 3104 3100 3095 3090 3084 3079 3071 3065 3059 3052 3046 3040 3034 3026 3019 3014 3008 3003 2998 2992 2985
3121 3121 3121 3121 3121 3119 3116 3113 3115 3116 3112 3111 3111 3111 3112 3113 3113 3112 3112 3113 3113 3112 3111 3110 3109 3107 3104 3101 3099 3095 3091 3085 3079 3073 3065 3058 3051 3043 3036 3029 3022 3015 3010 3004 2998 2992 2986 2982 2976
3116 3116 3115 3117 3116 3115 3111 3106 3108 3107 3103 3102 3102 3103 3104 3105 3105 3106 3106 3107 3107 3106 3106 3104 3103 3100 3098 3095 3091 3086 3081 3075 3069 3062 3056 3049 3042 3035 3027 3020 3014 3008 3001 2996 2989 2983 2978 2972 2966
3110 3110 3111 3112 3111 3109 3106 3096 3098 3098 3095 3093 3092 3094 3095 3096 3098 3099 3100 3101 3100 3100 3100 3098 3096 3094 3092 3088 3083 3077 3071 3066 3060 3053 3048 3042 3035 3027 3020 3014 3007 3001 2994 2988 2982 2975 2969 2963 2958
3106 3106 3107 3107 3108 3106 3104 3092 3086 3090 3088 3085 3085 3086 3087 3089 3091 3092 3093 3094 3095 3095 3093 3092 3090 3088 3085 3081 3075 3070 3063 3056 3049 3042 3037 3031 3025 3019 3012 3006 2999 2993 2986 2980 2973 2967 2960 2954 2950
3101 3101 3102 3102 3102 3101 3099 3102 3073 3080 3079 3079 3079 3080 3082 3083 3085 3087 3088 3089 3089 3088 3087 3086 3084 3082 3078 3073 3069 3062 3055 3048 3041 3035 3030 3024 3018 3010 3004 2997 2990 2983 2977 2971 2964 2959 2952 2947 2942
3095 3097 3098 3098 3099 3097 3090 3094 3067 3073 3073 3074 3075 3075 3076 3078 3080 3081 3082 3082 3082 3082 3082 3081 3079 3075 3071 3067 3060 3053 3046 3039 3034 3028 3021 3015 3008 3002 2995 2987 2981 2974 2967 2961 2956 2950 2944 2938 2934
3090 3093 3096 3096 3096 3088 3084 3086 3066 3070 3068 3069 3070 3071 3072 3073 3075 3076 3076 3077 3077 3077 3077 3075 3072 3068 3064 3059 3053 3045 3038 3032 3026 3019 3011 3005 2998 2992 2985 2978 2971 2964 2958 2951 2945 2940 2934 2929 2925
3083 3086 3086 3089 3088 3081 3081 3072 3062 3064 3064 3064 3064 3066 3067 3068 3069 3070 3070 3071 3072 3072 3070 3068 3064 3061 3056 3051 3044 3038 3031 3024 3018 3011 3003 2995 2988 2981 2975 2968 2961 2954 2947 2940 2934 2929 2924 2919 2916
3075 3077 3079 3079 3079 3080 3069 3063 3060 3058 3059 3059 3060 3061 3062 3063 3064 3064 3065 3066 3065 3064 3062 3060 3057 3053 3048 3042 3036 3031 3024 3017 3009 3002 2993 2985 2979 2971 2965 2957 2949 2942 2935 2929 2923 2918 2914 2909 2906
3067 3071 3074 3076 3078 3075 3060 3058 3051 3052 3052 3054 3056 3056 3056 3057 3058 3059 3060 3060 3059 3057 3054 3052 3048 3044 3039 3034 3028 3021 3015 3007 2999 2991 2983 2976 2970 2962 2954 2945 2937 2930 2924 2918 2912 2907 2903 2898 2896
3059 3061 3063 3065 3063 3060 3060 3048 3045 3047 3048 3050 3051 3052 3051 3052 3053 3055 3054 3053 3051 3049 3047 3044 3040 3036 3031 3026 3020 3013 3006 2998 2990 2982 2975 2968 2960 2950 2942 2933 2925 2918 2911 2906 2901 2896 2892 2888 2886
3051 3052 3053 3053 3054 3053 3050 3040 3039 3042 3043 3043 3044 3045 3046 3046 3046 3046 3046 3044 3043 3041 3039 3036 3032 3028 3023 3018 3011 3003 2996 2989 2981 2974 2967 2958 2949 2939 2929 2921 2914 2907 2900 2895 2889 2885 2882 2879 2877
Wind_Speed
6 4 8 4 2 1 9 8 10 9 8 7 8 9 8 7 6 5 5 7 7 7 8 9 8 9 10 10 10 12 14 13 13 14 14 14 15 17 17 16 17 18 18 18 20 21 21 21 21
5 6 8 4 3 3 5 8 7 7 7 7 7 7 7 7 9 9 7 7 7 7 7 7 7 8 9 10 10 12 13 14 15 17 18 18 19 19 20 19 21 21 21 22 23 23 23 23 23
6 6 7 5 7 4 4 7 7 5 4 6 7 7 9 8 9 9 8 6 5 5 5 6 6 7 8 8 10 11 12 13 15 16 17 18 18 19 20 22 23 25 26 28 28 28 27 27 27
7 7 7 7 4 6 7 8 7 6 7 6 7 7 10 9 8 8 6 5 5 5 6 6 6 8 9 10 11 12 13 15 16 17 18 19 21 21 22 22 23 24 26 27 27 29 30 30 31
8 7 9 9 10 9 9 9 9 7 7 8 9 9 8 9 8 7 6 5 6 6 6 7 9 11 12 15 17 19 20 20 20 21 22 22 22 23 23 24 24 25 27 28 28 29 31 31 33
11 12 10 12 11 10 9 9 8 9 9 8 9 9 9 7 7 6 7 7 6 7 7 9 12 14 15 17 18 19 20 21 22 23 23 24 24 24 25 26 27 28 28 29 29 30 31 32 34
15 14 14 12 11 11 11 10 10 12 11 10 9 9 8 8 8 8 8 8 7 7 8 10 12 13 15 16 17 18 20 20 21 22 23 23 24 25 25 26 27 28 29 30 31 32 33 34 35
16 16 16 14 13 13 12 14 13 12 12 10 10 7 8 9 9 9 9 9 8 9 10 11 13 14 14 15 16 18 19 20 21 21 22 23 23 24 24 25 25 26 28 30 31 33 35 37 38
17 17 19 17 15 14 14 14 12 12 12 13 12 11 10 8 8 9 9 10 10 10 10 11 12 13 14 16 18 18 18 19 20 21 22 24 25 25 26 26 28 29 31 33 34 36 37 39 40
16 18 14 14 13 13 14 13 14 14 13 14 12 10 10 9 9 10 11 11 11 10 10 10 11 13 15 15 16 17 19 21 23 24 25 26 26 27 28 29 30 32 33 35 37 39 40 42 43
17 17 14 15 14 14 15 15 16 16 15 11 11 12 11 11 11 12 13 13 11 9 9 9 10 12 14 15 17 19 22 24 26 28 28 28 28 29 30 31 33 35 36 38 40 41 43 44 46
18 17 16 17 16 16 16 16 17 17 15 15 14 13 12 12 13 14 14 13 12 10 10 10 10 11 14 17 19 21 23 25 28 30 31 31 31 31 32 34 35 37 38 40 42 43 44 45 47
18 17 17 17 18 18 18 17 19 16 17 15 14 14 14 14 14 16 16 15 14 12 12 10 11 13 16 19 23 25 28 30 33 35 36 36 35 35 35 36 38 40 42 44 45 46 47 48 48
15 15 17 17 17 17 17 18 19 14 16 16 16 16 16 17 17 18 17 16 15 14 13 13 14 15 18 22 26 29 32 35 37 40 41 41 40 40 40 41 43 45 48 49 51 51 52 52 51
15 16 16 17 17 18 17 22 18 18 19 19 18 18 19 20 19 19 20 18 18 17 16 16 16 18 21 24 28 32 36 38 40 42 43 44 44 44 46 47 49 51 52 53 53 53 52 51 50
13 16 18 17 18 20 19 22 13 15 17 18 19 20 20 22 22 23 22 21 21 20 19 19 19 20 23 26 31 35 38 39 41 43 44 44 44 47 49 51 52 54 54 53 53 52 51 51 52
16 15 16 17 17 19 22 21 14 16 18 19 20 21 21 23 25 22 23 24 24 23 22 22 22 23 25 28 32 36 39 40 42 44 46 46 46 49 51 52 52 53 52 50 49 48 48 48 48
17 21 21 20 18 21 25 26 23 23 24 24 25 26 25 24 23 24 26 27 26 26 25 25 25 26 27 30 34 37 40 40 44 46 48 47 48 50 51 51 51 50 48 47 47 46 44 44 44
22 18 17 17 20 24 27 30 24 25 31 30 28 28 26 23 25 28 28 27 27 27 28 27 27 28 30 32 36 38 39 41 44 46 47 48 50 51 51 50 49 48 48 48 47 47 46 45 44
23 25 26 23 23 25 28 32 27 28 32 33 33 31 28 25 28 27 27 27 28 29 28 28 29 30 32 35 39 42 43 45 47 48 47 49 49 49 49 48 47 47 47 46 47 46 46 46 44
25 26 24 21 20 21 27 37 30 23 24 26 29 27 30 26 27 28 26 27 29 28 28 29 29 30 34 37 41 43 45 47 49 49 48 48 48 47 47 45 45 44 44 45 46 45 45 44 41
25 22 21 22 18 10 10 12 20 26 24 25 24 23 22 23 25 26 27 28 27 26 28 28 28 31 35 39 41 44 47 50 50 51 51 49 49 47 45 45 44 44 44 43 43 43 44 43 40
23 21 17 17 18 20 21 12 28 21 27 19 16 17 18 21 22 24 24 24 26 27 26 26 29 33 37 40 42 45 47 50 51 51 51 49 47 45 45 45 43 42 42 42 42 42 42 41 39
21 18 15 15 14 7 15 18 31 14 9 15 18 17 19 21 20 21 23 26 25 24 24 26 31 35 37 39 43 45 49 51 52 51 51 50 48 47 45 43 42 43 44 43 42 41 41 39 37
24 18 3 2 3 6 7 12 28 14 17 18 15 15 17 20 18 19 22 21 22 22 24 28 33 35 36 39 42 45 50 52 52 53 53 51 49 48 44 43 44 45 46 46 45 43 40 38 36
26 26 10 7 4 3 8 11 12 10 15 18 20 18 17 19 17 18 21 22 21 22 26 31 32 33 36 40 42 46 50 51 52 53 52 51 50 48 46 47 48 48 48 47 46 44 40 38 36
21 26 26 8 5 3 9 18 28 29 24 17 16 20 20 19 19 19 20 19 21 26 29 29 30 32 36 40 44 47 49 50 52 51 51 51 49 48 49 51 51 49 48 46 45 43 40 37 35
28 18 11 13 4 5 6 9 23 13 16 14 18 19 20 19 18 16 18 21 26 27 27 28 29 33 37 41 45 47 48 50 51 51 51 50 49 50 52 52 51 49 47 45 44 42 39 36 34
31 30 18 11 9 5 2 8 18 14 13 12 15 19 19 19 16 17 22 25 26 25 26 28 31 34 38 42 45 46 48 50 50 50 50 50 51 52 53 53 51 48 46 43 42 41 38 36 33
31 34 38 17 9 10 6 17 29 28 32 26 19 16 18 20 18 23 25 26 25 24 26 29 32 35 39 42 43 46 48 48 49 49 49 51 52 53 53 51 48 46 44 42 40 38 35 35 31
Wind_Direction
191 179 196 182 203 181 151 161 156 147 161 176 185 194 213 234 244 255 271 246 256 274 287 288 297 300 298 298 296 287 281 277 278 287 284 280 280 279 280 287 292 287 284 283 282 283 284 284 284
179 195 206 198 233 192 173 163 153 165 176 181 181 204 213 237 246 254 264 262 273 282 284 290 287 289 294 292 290 290 292 293 291 290 290 291 290 284 282 279 273 279 283 284 284 284 283 283 282
210 208 209 214 239 215 194 182 185 187 202 219 222 227 232 241 247 256 263 263 267 271 281 285 291 288 286 291 292 295 298 301 301 300 298 298 296 293 289 286 283 282 280 280 279 279 279 281 282
227 222 228 235 247 215 209 198 210 226 236 237 240 248 247 254 261 269 277 268 274 288 281 282 299 306 313 312 313 315 317 313 309 305 303 302 301 300 298 294 293 291 288 288 286 282 279 278 278
234 233 235 231 232 229 214 212 215 233 238 233 235 246 257 256 263 259 250 266 274 277 293 306 313 319 325 327 327 325 320 315 312 310 306 303 303 301 300 298 296 294 293 292 290 288 287 285 280
229 229 230 232 234 227 226 226 237 241 238 249 258 258 256 253 248 238 251 255 264 278 293 312 322 325 325 322 319 316 311 309 308 306 305 304 302 302 299 297 296 294 293 292 290 289 287 284 282
233 241 247 249 246 239 230 241 254 244 240 249 259 263 264 255 251 253 260 263 265 280 301 315 319 319 317 316 313 313 312 312 310 308 306 303 300 297 296 295 293 292 292 291 291 289 287 285 282
236 238 244 246 251 254 251 243 248 246 242 249 255 254 239 242 245 247 254 262 274 296 306 314 319 320 316 318 318 319 319 317 315 313 310 306 303 300 298 297 296 296 293 292 291 290 288 286 284
247 248 257 263 261 254 251 250 252 255 255 250 246 245 247 246 246 255 262 270 282 292 305 315 316 317 325 327 328 326 323 324 323 320 315 309 305 301 299 299 299 298 296 295 292 289 286 284 282
252 257 264 261 257 265 256 255 252 252 250 247 246 249 250 250 256 255 263 273 282 292 303 311 321 327 327 327 326 326 330 332 330 326 322 318 314 310 306 302 298 296 293 291 290 288 286 283 281
253 255 257 257 260 256 250 252 250 250 249 253 248 243 249 253 256 257 265 271 274 283 294 309 314 322 326 326 329 331 333 333 333 333 329 323 317 311 305 301 298 296 294 293 292 289 287 284 282
255 257 258 257 256 254 254 251 251 252 251 245 247 248 251 255 256 256 264 265 268 272 285 289 302 319 327 330 331 329 329 332 333 330 327 323 318 312 306 302 299 297 295 294 293 290 287 285 283
253 255 256 257 252 251 249 247 246 249 250 250 253 254 251 255 258 256 259 258 258 259 267 277 296 311 325 334 335 332 333 332 332 331 329 326 321 316 312 309 307 304 303 303 300 298 296 293 289
255 251 248 249 245 247 248 251 253 259 260 259 257 256 254 254 257 257 254 252 249 254 262 274 289 306 323 331 334 334 333 332 330 330 330 327 323 320 317 315 313 312 312 310 307 305 301 298 294
247 252 250 246 246 245 249 255 267 262 258 258 255 254 254 254 259 256 252 251 247 251 259 270 288 306 315 323 329 332 332 330 330 329 327 326 325 323 321 320 319 316 314 312 309 305 301 297 291
249 248 246 249 247 247 251 257 263 257 257 255 250 250 253 254 252 252 249 248 247 250 258 272 286 299 308 317 325 329 330 328 326 326 327 326 325 323 323 322 321 319 316 312 309 306 302 297 293
244 248 250 252 254 253 256 264 269 258 264 263 258 257 258 254 250 253 248 247 247 251 260 272 283 293 305 313 322 325 326 325 325 326 326 327 327 325 324 321 319 317 316 314 310 307 305 301 296
250 252 256 255 262 259 261 267 264 262 264 266 263 259 260 260 250 250 246 246 248 252 261 272 280 290 300 310 319 322 324 323 324 325 327 328 326 325 324 322 321 319 318 316 314 311 308 304 300
256 253 258 265 264 260 266 270 263 262 266 262 264 265 264 260 245 245 248 249 252 256 262 271 279 287 298 310 316 321 318 318 321 325 328 328 328 326 324 322 321 321 320 318 315 314 311 308 304
250 254 259 265 262 264 268 271 271 266 267 272 269 264 262 252 242 244 250 251 253 257 264 271 279 287 299 310 317 318 318 321 325 329 330 328 327 325 323 323 322 321 319 317 314 313 310 307 307
251 253 260 261 267 268 278 283 280 270 267 270 267 261 256 246 239 240 249 249 252 259 265 272 279 289 301 312 315 316 319 323 326 327 327 327 325 324 324 322 321 318 315 314 312 311 309 307 307
248 251 254 257 264 265 270 290 274 283 276 267 257 254 247 237 239 239 245 246 255 259 266 273 281 293 305 311 313 316 320 324 326 326 328 326 325 325 323 320 319 316 315 313 312 310 307 308 307
244 247 253 255 258 271 264 259 286 284 284 269 246 252 240 232 235 240 247 248 252 260 268 274 287 300 306 309 313 317 321 323 324 324 324 324 323 323 320 318 318 317 316 316 314 310 307 306 306
238 240 248 258 258 262 253 217 279 278 271 239 253 251 236 230 236 242 242 245 256 264 269 281 295 300 304 309 313 318 320 322 322 322 322 323 323 321 318 318 317 317 317 316 313 309 305 303 302
227 224 233 279 175 228 215 214 257 265 262 264 255 245 240 233 238 244 249 253 256 263 276 289 296 298 304 309 314 317 319 320 321 322 322 322 321 319 317 315 314 314 312 311 310 307 304 301 299
229 218 202 211 201 227 212 238 265 259 268 259 248 248 245 242 246 248 247 251 259 272 285 292 294 298 305 310 314 316 317 318 319 321 321 320 319 317 316 313 312 311 309 308 306 303 301 298 296
219 217 229 240 265 292 240 257 266 271 262 253 243 246 252 243 247 246 251 256 267 282 289 291 294 301 307 310 313 315 316 317 319 320 320 319 318 316 314 312 311 310 308 306 303 301 298 293 292
220 226 201 203 182 236 252 252 252 266 289 251 248 252 252 249 248 255 262 271 280 287 289 292 298 304 307 310 312 314 316 318 320 320 319 318 317 315 314 313 312 311 309 306 303 300 297 294 290
216 215 212 205 210 189 231 248 259 256 269 260 249 253 244 250 252 273 279 282 287 289 292 297 302 305 308 310 312 314 316 318 319 319 319 318 318 317 316 314 314 311 309 306 302 300 297 294 290
229 235 229 217 213 211 246 254 262 271 279 276 265 244 250 244 263 290 287 287 291 289 294 299 304 306 308 310 312 315 318 319 319 320 320 320 319 319 318 316 313 310 307 303 301 298 297 294 291